TimeEDT,TemperatureF,Dew PointF,Humidity,Sea Level PressureIn,VisibilityMPH,Wind Direction,Wind SpeedMPH,Gust SpeedMPH,PrecipitationIn,Events,Conditions,WindDirDegrees,DateUTC
12:15 AM,57.4,40.6,54,30.08,10.0,SE,4.6,-,N/A,,Scattered Clouds,140,2013-03-11 04:15:00
12:35 AM,57.9,41.5,54,30.08,10.0,SSW,4.6,-,N/A,,Scattered Clouds,210,2013-03-11 04:35:00
1:15 AM,57.7,41.0,54,30.08,10.0,SSW,6.9,23.0,N/A,,Mostly Cloudy,210,2013-03-11 05:15:00
1:35 AM,56.7,41.0,56,30.07,10.0,SSE,4.6,-,N/A,,Mostly Cloudy,160,2013-03-11 05:35:00
1:55 AM,56.8,41.5,57,30.07,10.0,North,6.9,-,N/A,,Mostly Cloudy,10,2013-03-11 05:55:00
2:15 AM,57.2,43.2,59,30.06,10.0,NE,3.5,-,N/A,,Mostly Cloudy,50,2013-03-11 06:15:00
2:35 AM,57.0,43.9,61,30.06,10.0,Calm,Calm,-,N/A,,Overcast,0,2013-03-11 06:35:00
3:15 AM,56.3,45.7,68,30.05,10.0,SE,6.9,17.3,N/A,,Overcast,130,2013-03-11 07:15:00
3:35 AM,55.8,46.0,70,30.05,10.0,SSW,9.2,-,N/A,,Overcast,200,2013-03-11 07:35:00
3:55 AM,55.9,46.4,70,30.04,10.0,WSW,4.6,-,N/A,,Overcast,240,2013-03-11 07:55:00
4:15 AM,55.6,46.4,71,30.01,10.0,ESE,16.1,20.7,N/A,,Overcast,120,2013-03-11 08:15:00
4:35 AM,55.6,46.6,72,30.01,10.0,West,4.6,17.3,N/A,,Overcast,260,2013-03-11 08:35:00
4:55 AM,55.4,46.8,73,30.01,10.0,SSE,10.4,21.9,N/A,,Overcast,160,2013-03-11 08:55:00
5:15 AM,54.7,46.9,75,30.00,10.0,SW,8.1,19.6,N/A,,Overcast,230,2013-03-11 09:15:00
5:35 AM,54.7,46.9,75,30.01,10.0,SW,4.6,20.7,N/A,,Overcast,230,2013-03-11 09:35:00
5:55 AM,54.5,47.1,76,30.01,10.0,SSW,6.9,-,N/A,,Overcast,210,2013-03-11 09:55:00
6:15 AM,54.5,46.9,76,30.01,10.0,SSW,15.0,25.3,N/A,,Overcast,210,2013-03-11 10:15:00
6:35 AM,54.3,46.8,76,30.01,10.0,South,12.7,23.0,N/A,,Overcast,190,2013-03-11 10:35:00
6:55 AM,54.5,46.8,75,30.03,10.0,South,8.1,17.3,N/A,,Overcast,190,2013-03-11 10:55:00
7:15 AM,54.3,46.9,76,30.02,10.0,SSW,15.0,21.9,N/A,,Overcast,210,2013-03-11 11:15:00
7:35 AM,54.0,47.5,79,30.03,10.0,SSW,9.2,18.4,N/A,,Overcast,200,2013-03-11 11:35:00
7:55 AM,53.6,47.7,80,30.01,10.0,SSW,9.2,21.9,N/A,,Overcast,200,2013-03-11 11:55:00
8:15 AM,53.6,47.7,80,30.01,10.0,SSW,4.6,-,N/A,,Overcast,200,2013-03-11 12:15:00
8:35 AM,53.8,47.7,80,30.00,10.0,South,8.1,19.6,N/A,,Overcast,180,2013-03-11 12:35:00
8:55 AM,54.0,47.8,80,29.99,10.0,South,4.6,-,N/A,,Overcast,190,2013-03-11 12:55:00
9:15 AM,54.3,48.2,80,29.99,10.0,SSE,10.4,-,N/A,,Overcast,160,2013-03-11 13:15:00
9:35 AM,54.7,48.2,79,29.98,10.0,South,15.0,24.2,N/A,,Overcast,170,2013-03-11 13:35:00
9:55 AM,55.4,48.2,77,29.97,10.0,SSW,12.7,25.3,N/A,,Overcast,210,2013-03-11 13:55:00
10:15 AM,55.6,48.4,77,29.98,10.0,South,10.4,26.5,N/A,,Overcast,180,2013-03-11 14:15:00
10:35 AM,55.4,48.2,77,29.97,10.0,SSW,8.1,27.6,N/A,,Overcast,200,2013-03-11 14:35:00
10:55 AM,55.2,47.8,76,29.96,10.0,South,4.6,-,N/A,,Overcast,180,2013-03-11 14:55:00
11:15 AM,54.9,47.8,77,29.96,10.0,SW,8.1,21.9,N/A,,Overcast,220,2013-03-11 15:15:00
11:35 AM,55.4,47.8,76,29.94,10.0,South,8.1,-,N/A,,Overcast,180,2013-03-11 15:35:00
11:55 AM,56.1,47.8,74,29.95,10.0,SSW,12.7,24.2,N/A,,Overcast,200,2013-03-11 15:55:00
12:15 PM,57.6,48.0,70,29.95,10.0,SW,9.2,18.4,N/A,,Overcast,220,2013-03-11 16:15:00
12:35 PM,58.1,48.7,71,29.95,10.0,SSW,9.2,-,N/A,,Overcast,210,2013-03-11 16:35:00
12:55 PM,57.9,48.2,70,29.93,10.0,SSW,10.4,27.6,N/A,,Overcast,210,2013-03-11 16:55:00
1:15 PM,58.1,48.6,71,29.93,10.0,South,12.7,21.9,N/A,,Overcast,170,2013-03-11 17:15:00
1:35 PM,58.1,47.8,69,29.89,10.0,SW,8.1,17.3,N/A,,Overcast,230,2013-03-11 17:35:00
2:15 PM,58.8,47.1,65,29.86,10.0,WNW,4.6,23.0,N/A,,Overcast,290,2013-03-11 18:15:00
2:35 PM,58.6,46.9,65,29.85,10.0,South,6.9,-,N/A,,Overcast,170,2013-03-11 18:35:00
2:55 PM,58.5,46.6,65,29.82,10.0,SSW,9.2,19.6,N/A,,Overcast,210,2013-03-11 18:55:00
3:15 PM,56.8,47.7,71,29.83,10.0,South,12.7,26.5,N/A,Rain,Light Rain,190,2013-03-11 19:15:00
3:35 PM,57.6,47.7,70,29.81,10.0,SW,9.2,19.6,N/A,,Overcast,230,2013-03-11 19:35:00
3:55 PM,56.5,48.7,75,29.83,7.0,SSW,10.4,21.9,N/A,Rain,Rain,210,2013-03-11 19:55:00
4:15 PM,55.4,49.8,81,29.84,5.0,West,4.6,-,0.01,Rain,Rain,260,2013-03-11 20:15:00
4:35 PM,54.0,50.5,88,29.84,5.0,West,8.1,-,0.03,Rain,Rain,260,2013-03-11 20:35:00
4:55 PM,52.7,50.0,91,29.86,2.5,WSW,10.4,-,0.21,Rain,Heavy Rain,250,2013-03-11 20:55:00
5:15 PM,52.0,49.5,91,29.86,4.0,SSW,5.8,-,0.09,Rain,Heavy Rain,200,2013-03-11 21:15:00
5:35 PM,51.8,49.6,92,29.86,5.0,Calm,Calm,-,0.09,Rain,Rain,0,2013-03-11 21:35:00
5:55 PM,52.0,49.6,92,29.86,3.0,Calm,Calm,-,0.09,Rain,Rain,0,2013-03-11 21:55:00
6:15 PM,51.8,50.2,94,29.87,3.0,Calm,Calm,-,N/A,Rain,Rain,0,2013-03-11 22:15:00
6:35 PM,51.3,50.4,97,29.88,3.0,Calm,Calm,-,N/A,Rain,Rain,0,2013-03-11 22:35:00
6:55 PM,51.3,50.4,97,29.89,2.0,North,3.5,-,N/A,Rain,Heavy Rain,360,2013-03-11 22:55:00
7:15 PM,50.9,50.4,98,29.88,2.5,ENE,3.5,-,0.01,Rain,Rain,70,2013-03-11 23:15:00
7:35 PM,50.9,50.2,97,29.84,10.0,East,6.9,-,0.01,Rain,Light Rain,100,2013-03-11 23:35:00
7:55 PM,51.1,49.6,95,29.80,10.0,NNE,5.8,-,0.01,Rain,Light Rain,20,2013-03-11 23:55:00
8:15 PM,52.3,49.1,89,29.81,10.0,NW,6.9,-,N/A,,Mostly Cloudy,310,2013-03-12 00:15:00
8:35 PM,51.1,49.1,93,29.81,10.0,Calm,Calm,-,N/A,,Scattered Clouds,0,2013-03-12 00:35:00
8:55 PM,50.5,49.3,95,29.81,10.0,Calm,Calm,-,N/A,,Mostly Cloudy,0,2013-03-12 00:55:00
9:15 PM,50.2,49.5,97,29.82,10.0,Calm,Calm,-,N/A,,Overcast,0,2013-03-12 01:15:00
9:35 PM,49.6,49.3,99,29.81,10.0,Calm,Calm,-,N/A,,Overcast,0,2013-03-12 01:35:00
9:55 PM,49.8,49.5,99,29.81,10.0,Calm,Calm,-,N/A,,Overcast,0,2013-03-12 01:55:00
10:15 PM,50.0,49.5,98,29.82,10.0,Calm,Calm,-,N/A,,Overcast,0,2013-03-12 02:15:00
10:35 PM,50.0,49.6,99,29.81,7.0,Calm,Calm,-,N/A,,Overcast,0,2013-03-12 02:35:00
10:55 PM,50.2,50.0,99,29.83,5.0,WNW,6.9,-,N/A,Rain,Rain,290,2013-03-12 02:55:00
11:15 PM,51.1,50.2,97,29.83,7.0,Calm,Calm,-,N/A,Rain,Rain,0,2013-03-12 03:15:00
11:35 PM,50.9,50.0,97,29.83,7.0,Calm,Calm,-,N/A,Rain,Light Rain,0,2013-03-12 03:35:00
11:55 PM,50.7,50.0,97,29.83,4.0,West,4.6,-,N/A,Rain,Rain,260,2013-03-12 03:55:00